Change the Weather History Date:

Thursday, October 17, 2013

  Actual Average Record
Temperature  
Mean Temperature 45 °F -  
Max Temperature 46 °F 43 °F 55 °F (2001)
Min Temperature 44 °F 36 °F 30 °F (2008)
Degree Days  
Heating Degree Days 20    
Moisture  
Dew Point 45 °F    
Average Humidity 96    
Maximum Humidity 100    
Minimum Humidity 66    
Precipitation  
Precipitation 0.33 in - - ()
Sea Level Pressure  
Sea Level Pressure 29.63 in    
Wind  
Wind Speed 2 mph (SE)    
Max Wind Speed 17 mph    
Max Gust Speed 29 mph    
Visibility 6 miles    
Events      
Averages and records for this station are not official NWS values.
T = Trace of Precipitation, MM = Missing Value Source: NWS Daily Summary

Daily Weather History Graph

Daily Weather History Graph

Search for Another Location

Airport or City:

Trip Planner

Search our weather history database for the weather conditions in past years. The results will help you decide how hot, cold, wet, or windy it might be!

Date:

Astronomy

Oct. 17, 2013 Rise Set
Actual Time 9:10 AM AKDT 7:25 PM AKDT
Civil Twilight 8:32 AM AKDT 8:03 PM AKDT
Nautical Twilight 7:48 AM AKDT 8:47 PM AKDT
Astronomical Twilight 7:05 AM AKDT 9:30 PM AKDT
Moon 6:50 PM AKDT (10/17) 7:46 AM AKDT (10/17)
Length of Visible Light 11h 31m
Length of Day
10h 15m
Waxing Gibbous, 98% of the Moon is Illuminated
Oct 17
Waxing Gibbous
Oct 18
Full
Oct 26
Last Quarter
Nov 3
New
Nov 9
First Quarter

Hourly Weather History & Observations

Time (AKDT) Temp. Windchill Dew Point Humidity Pressure Visibility Wind Dir Wind Speed Gust Speed Precip Events Conditions
12:16 AM 44.6 °F 43.1 °F 42.8 °F 93% 29.70 in 10.0 mi North 3.5 mph - N/A   Overcast
12:36 AM 44.6 °F - 44.6 °F 100% 29.70 in 10.0 mi Calm Calm - N/A   Overcast
12:56 AM 46.4 °F - 46.4 °F 100% 29.70 in 10.0 mi Calm Calm - N/A   Overcast
1:16 AM 44.6 °F - 44.6 °F 100% 29.71 in 10.0 mi Calm Calm - N/A   Overcast
1:36 AM 44.6 °F - 44.6 °F 100% 29.71 in 10.0 mi Calm Calm - N/A   Overcast
1:56 AM 46.4 °F - 46.4 °F 100% 29.71 in 10.0 mi Calm Calm - N/A   Overcast
2:16 AM 46.4 °F - 46.4 °F 100% 29.71 in 10.0 mi Calm Calm - N/A   Overcast
2:36 AM 46.4 °F - 46.4 °F 100% 29.70 in 9.0 mi Calm Calm - N/A   Overcast
2:56 AM 46.4 °F - 46.4 °F 100% 29.70 in 1.2 mi Calm Calm - N/A   Overcast
3:16 AM 46.4 °F - 46.4 °F 100% 29.70 in 10.0 mi Calm Calm - N/A   Overcast
3:36 AM 46.4 °F - 46.4 °F 100% 29.69 in 10.0 mi Calm Calm - N/A   Overcast
3:56 AM 46.4 °F - 46.4 °F 100% 29.69 in 10.0 mi Calm Calm - N/A   Overcast
4:16 AM 46.4 °F - 46.4 °F 100% 29.69 in 10.0 mi Calm Calm - N/A   Overcast
4:36 AM 46.4 °F - 46.4 °F 100% 29.68 in 1.8 mi Calm Calm - N/A   Overcast
4:56 AM 46.4 °F - 46.4 °F 100% 29.68 in 2.5 mi Calm Calm - 0.02 in   Overcast
5:16 AM 46.4 °F - 46.4 °F 100% 29.68 in 4.0 mi Calm Calm - 0.03 in   Overcast
5:36 AM 46.4 °F - 46.4 °F 100% 29.67 in 3.0 mi Calm Calm - 0.03 in   Overcast
5:56 AM 46.4 °F - 46.4 °F 100% 29.67 in 2.0 mi Calm Calm - 0.04 in   Overcast
6:16 AM 46.4 °F - 46.4 °F 100% 29.66 in 1.2 mi Calm Calm - N/A   Overcast
6:36 AM 46.4 °F - 46.4 °F 100% 29.66 in 2.5 mi Calm Calm - N/A   Overcast
6:56 AM 46.4 °F - 46.4 °F 100% 29.66 in 4.0 mi Calm Calm - N/A   Overcast
7:16 AM 46.4 °F - 46.4 °F 100% 29.66 in 2.5 mi Calm Calm - 0.01 in   Overcast
7:36 AM 46.4 °F - 46.4 °F 100% 29.65 in 2.5 mi Calm Calm - 0.01 in   Overcast
7:56 AM 46.4 °F - 46.4 °F 100% 29.64 in 4.0 mi Calm Calm - 0.02 in   Overcast
8:16 AM 46.4 °F 45.2 °F 46.4 °F 100% 29.64 in 10.0 mi ESE 3.5 mph - N/A   Overcast
8:36 AM 46.4 °F 45.2 °F 46.4 °F 100% 29.64 in 9.0 mi SE 3.5 mph - N/A   Overcast
8:56 AM 46.4 °F 45.2 °F 46.4 °F 100% 29.64 in 5.0 mi SE 3.5 mph - 0.01 in   Overcast
9:16 AM 46.4 °F 44.3 °F 46.4 °F 100% 29.64 in 3.0 mi SE 4.6 mph - N/A   Overcast
9:36 AM 46.4 °F 45.2 °F 46.4 °F 100% 29.63 in 8.0 mi North 3.5 mph - N/A   Overcast
9:56 AM 46.4 °F 45.2 °F 46.4 °F 100% 29.64 in 3.0 mi NNE 3.5 mph - 0.01 in   Overcast
10:16 AM 46.4 °F - 46.4 °F 100% 29.63 in 1.5 mi Calm Calm - N/A   Overcast
10:36 AM 46.4 °F - 46.4 °F 100% 29.63 in 3.0 mi Calm Calm - 0.01 in   Overcast
10:56 AM 46.4 °F - 46.4 °F 100% 29.63 in 2.0 mi Calm Calm - 0.01 in   Overcast
11:16 AM 46.4 °F - 46.4 °F 100% 29.63 in 1.5 mi Calm Calm - 0.01 in   Overcast
11:36 AM 46.4 °F - 46.4 °F 100% 29.63 in 2.0 mi Calm Calm - 0.02 in   Overcast
11:56 AM 46.4 °F - 46.4 °F 100% 29.62 in 4.0 mi Calm Calm - 0.02 in   Overcast
12:16 PM 46.4 °F - 44.6 °F 93% 29.62 in 7.0 mi Calm Calm - 0.01 in   Overcast
12:36 PM 46.4 °F - 46.4 °F 100% 29.62 in 4.0 mi Calm Calm - 0.01 in   Overcast
12:56 PM 46.4 °F - 44.6 °F 93% 29.62 in 5.0 mi Calm Calm - 0.01 in   Overcast
1:16 PM 46.4 °F 45.2 °F 44.6 °F 93% 29.61 in 2.5 mi SE 3.5 mph - N/A   Overcast
1:36 PM 46.4 °F 45.2 °F 46.4 °F 100% 29.61 in 2.0 mi ENE 3.5 mph - N/A   Overcast
1:56 PM 46.4 °F 45.2 °F 44.6 °F 93% 29.61 in 3.0 mi ENE 3.5 mph - 0.01 in   Overcast
2:16 PM 46.4 °F - 44.6 °F 93% 29.60 in 2.5 mi Calm Calm - 0.01 in   Overcast
2:36 PM 46.4 °F - 44.6 °F 93% 29.60 in 3.0 mi Calm Calm - 0.02 in   Overcast
2:56 PM 46.4 °F - 46.4 °F 100% 29.60 in 5.0 mi Calm Calm - 0.03 in   Overcast
3:16 PM 46.4 °F - 46.4 °F 100% 29.59 in 8.0 mi Calm Calm - N/A   Overcast
3:36 PM 46.4 °F - 46.4 °F 100% 29.59 in 6.0 mi Calm Calm - 0.01 in   Overcast
3:56 PM 46.4 °F - 46.4 °F 100% 29.58 in 3.0 mi Calm Calm - 0.03 in   Overcast
4:16 PM 46.4 °F - 46.4 °F 100% 29.58 in 5.0 mi Calm Calm - 0.01 in   Overcast
4:36 PM 46.4 °F - 46.4 °F 100% 29.58 in 3.0 mi Calm Calm - N/A   Overcast
4:56 PM 46.4 °F - 46.4 °F 100% 29.57 in 4.0 mi Calm Calm - N/A   Overcast
5:16 PM 46.4 °F 42.4 °F 46.4 °F 100% 29.57 in 10.0 mi West 8.1 mph - N/A   Overcast
5:36 PM 46.4 °F 42.9 °F 44.6 °F 93% 29.57 in 9.0 mi WNW 6.9 mph - N/A   Overcast
5:56 PM 46.4 °F 44.3 °F 44.6 °F 93% 29.57 in 8.0 mi West 4.6 mph - 0.05 in   Overcast
6:16 PM 46.4 °F 42.4 °F 44.6 °F 93% 29.57 in 10.0 mi WSW 8.1 mph - 0.02 in   Overcast
6:36 PM 46.4 °F 42.4 °F 44.6 °F 93% 29.57 in 10.0 mi West 8.1 mph - 0.03 in   Overcast
6:56 PM 46.4 °F 40.7 °F 44.6 °F 93% 29.56 in 10.0 mi WSW 12.7 mph - 0.04 in   Overcast
7:16 PM 46.4 °F 41.9 °F 44.6 °F 93% 29.57 in 10.0 mi West 9.2 mph - N/A   Overcast
7:36 PM 46.4 °F 45.2 °F 44.6 °F 93% 29.57 in 10.0 mi ENE 3.5 mph - 0.01 in   Overcast
7:56 PM 46.4 °F - 44.6 °F 93% 29.57 in 10.0 mi Calm Calm - 0.01 in   Overcast
8:16 PM 46.4 °F - 44.6 °F 93% 29.57 in 10.0 mi Calm Calm - N/A   Overcast
8:36 PM 46.4 °F 43.5 °F 44.6 °F 93% 29.57 in 10.0 mi East 5.8 mph - N/A   Overcast
8:56 PM 46.4 °F 45.2 °F 44.6 °F 93% 29.57 in 10.0 mi East 3.5 mph - N/A   Overcast
9:16 PM 46.4 °F 43.5 °F 44.6 °F 93% 29.58 in 10.0 mi NE 5.8 mph - N/A   Overcast
9:36 PM 46.4 °F - 44.6 °F 93% 29.58 in 9.0 mi Calm Calm - N/A   Overcast
9:56 PM 46.4 °F - 44.6 °F 93% 29.58 in 9.0 mi Calm Calm - N/A   Overcast
10:16 PM 46.4 °F 44.3 °F 44.6 °F 93% 29.58 in 10.0 mi East 4.6 mph - 0.01 in   Mostly Cloudy
10:36 PM 46.4 °F 39.5 °F 41.0 °F 81% 29.58 in 10.0 mi SW 17.3 mph 28.8 mph 0.01 in   Overcast
10:56 PM 46.4 °F 40.1 °F 39.2 °F 76% 29.58 in 10.0 mi WSW 15.0 mph 19.6 mph 0.01 in   Overcast
11:16 PM 46.4 °F 44.3 °F 37.4 °F 71% 29.59 in 10.0 mi South 4.6 mph 25.3 mph N/A   Mostly Cloudy
11:36 PM 46.4 °F 42.9 °F 35.6 °F 66% 29.59 in 10.0 mi SSE 6.9 mph 20.7 mph N/A   Overcast
11:56 PM 46.4 °F 41.1 °F 35.6 °F 66% 29.59 in 10.0 mi West 11.5 mph - N/A   Overcast